Wind_Speed
25 26 27 29 30 30 30 29 29 27 26 25 24 24 24 24 22 20 19 17 16 15 15 15 15 15 15 15 15 15 14 13 13 13 13 13 12 12 11 10 9 8 7
22 24 24 26 28 29 29 30 30 28 28 26 25 25 25 25 24 22 20 19 17 17 16 16 15 16 16 16 16 16 15 14 14 14 14 14 13 13 12 11 10 8 7
19 20 22 23 26 28 28 28 29 29 29 29 28 26 26 25 25 25 23 21 19 18 18 17 17 18 17 17 17 16 16 15 15 14 14 14 14 13 13 11 10 9 8
15 17 18 20 23 25 26 26 27 28 28 29 29 27 27 27 27 26 26 24 22 20 20 19 18 19 18 18 18 18 17 16 15 15 15 15 14 14 13 12 11 9 8
13 13 15 17 19 22 24 25 26 27 27 28 29 29 27 27 27 27 27 26 24 23 22 21 20 20 19 18 18 18 18 17 16 16 16 15 15 14 13 12 11 10 9
11 11 12 15 17 19 21 23 24 25 26 28 29 29 29 29 28 28 28 27 27 26 24 23 23 22 21 20 20 20 19 19 18 18 17 17 16 15 14 13 12 11 10
11 10 10 11 13 16 19 21 22 23 24 27 29 30 30 30 29 28 28 28 29 28 27 25 25 25 24 23 22 21 21 20 20 19 18 18 17 16 15 14 13 12 11
11 10 9 8 10 12 15 18 20 22 23 25 27 29 29 30 30 29 29 30 30 29 29 28 27 27 26 25 24 23 22 22 21 20 20 19 18 17 17 16 15 14 13
13 11 9 8 7 9 11 14 17 20 22 23 26 28 29 30 31 31 31 31 32 32 32 31 30 29 28 27 27 26 24 23 23 22 21 20 20 19 18 17 17 16 14
13 12 10 8 7 7 9 12 14 17 20 22 24 27 29 30 32 31 33 33 33 32 34 34 33 31 30 29 29 28 27 26 25 24 23 22 21 20 20 19 18 17 16
14 12 11 10 8 7 7 10 12 15 17 20 22 25 27 30 32 32 33 34 34 33 34 35 34 33 33 32 31 30 30 29 28 26 25 24 23 22 21 21 19 19 18
15 13 11 10 9 9 7 8 10 13 15 18 21 23 26 28 31 33 34 34 35 36 36 36 37 35 35 35 35 33 33 32 31 29 28 27 26 24 23 23 22 21 20
17 15 13 12 11 10 9 8 10 12 14 17 19 21 24 27 30 32 34 35 35 36 37 38 39 39 38 37 37 36 35 34 34 32 31 30 29 28 27 26 24 23 22
18 16 15 13 12 11 10 9 9 10 12 15 17 20 23 26 29 31 33 35 36 37 38 40 40 40 39 40 40 38 37 37 36 35 34 33 32 31 30 29 27 26 25
18 17 16 15 14 12 11 10 9 10 12 13 15 18 21 24 27 29 31 34 36 37 38 40 42 42 42 41 42 41 40 39 39 38 36 35 35 34 33 32 31 29 28
19 18 17 16 15 14 12 11 11 11 12 13 15 17 19 21 24 28 30 32 34 37 39 40 42 42 42 42 42 42 42 42 41 40 39 38 37 36 35 35 34 32 31
19 19 18 17 16 15 13 13 12 12 12 12 13 15 17 19 22 25 28 30 33 35 37 39 40 42 43 43 44 43 43 43 42 42 41 40 39 38 38 38 37 36 35
19 19 18 18 17 15 14 14 13 13 12 11 11 12 14 16 18 22 25 27 30 33 35 37 39 40 41 43 44 44 45 44 43 44 44 43 42 41 40 40 40 39 38
20 19 18 18 17 16 15 15 15 14 12 11 10 10 11 13 15 17 21 24 27 29 32 35 36 38 39 40 41 43 44 45 45 44 44 43 43 42 42 42 42 42 41
19 19 19 18 18 17 16 16 15 14 13 11 9 9 10 11 12 14 16 20 23 26 30 33 35 36 36 38 40 40 41 42 43 44 45 44 44 44 43 43 44 44 43
19 19 19 19 18 17 17 16 16 14 13 11 9 9 9 10 10 12 14 16 19 22 26 30 33 34 36 37 38 39 39 41 42 42 43 44 45 45 45 45 45 45 44
19 19 19 19 18 18 17 16 16 15 13 11 10 9 8 9 10 11 13 14 16 19 22 25 29 32 34 36 38 39 39 40 42 42 43 43 43 44 44 45 44 44 45
20 19 19 18 18 18 17 16 16 15 14 12 11 10 9 9 10 11 12 13 15 17 20 22 25 28 31 33 36 37 38 39 40 42 43 43 44 43 44 45 45 44 45
20 19 19 18 18 18 17 16 16 15 14 13 12 11 10 10 10 10 11 13 14 16 17 19 21 24 28 30 33 35 36 37 39 40 42 42 42 42 42 44 45 46 46
20 19 19 18 18 17 17 17 16 15 14 14 13 13 12 11 11 11 11 13 14 15 16 18 20 22 24 27 29 32 34 35 37 38 40 40 41 41 42 43 44 46 46
21 20 19 19 18 18 17 17 16 16 15 14 14 13 13 13 12 12 12 12 13 15 16 17 19 21 23 25 27 29 31 34 35 36 38 40 41 42 41 42 43 44 45
Wind_Direction
267 261 258 253 250 248 246 245 244 242 239 238 235 233 231 229 231 231 232 229 229 228 222 218 216 215 212 209 207 205 203 202 202 198 196 193 191 190 189 187 185 183 183
270 263 257 252 248 247 246 244 243 239 237 236 235 235 231 229 228 229 229 229 228 227 224 219 217 215 212 209 207 206 205 205 204 201 198 197 195 195 193 194 192 192 192
275 266 258 251 247 245 244 243 242 237 235 233 234 235 229 227 226 227 228 229 228 227 223 219 218 215 211 209 209 207 207 208 207 204 203 201 200 199 199 199 198 200 201
283 272 263 253 247 245 242 240 239 237 235 233 233 234 230 228 227 228 228 228 227 226 223 221 220 218 212 209 210 210 210 210 209 208 205 204 202 202 202 203 206 207 209
296 282 269 257 249 245 241 237 237 236 233 231 231 231 228 225 227 227 227 227 227 225 224 223 219 218 215 211 212 212 211 211 211 209 207 206 206 205 206 210 211 212 215
312 297 281 263 253 246 240 237 236 235 233 232 230 229 229 228 228 228 227 227 226 225 223 223 219 217 217 214 214 214 213 213 211 210 210 209 209 209 212 215 216 217 220
330 317 297 273 258 250 243 238 236 235 234 232 230 228 229 230 229 229 229 228 226 225 225 224 220 218 219 219 217 216 215 215 214 214 213 212 213 214 217 219 222 223 226
343 334 321 291 265 254 245 239 236 235 235 232 230 229 229 230 231 230 228 226 225 226 226 225 224 221 220 220 219 218 218 217 217 217 215 215 217 219 221 224 227 229 230
355 347 337 320 286 262 251 243 237 236 236 234 232 230 229 230 231 230 229 228 227 228 228 227 227 224 222 222 221 221 220 220 220 219 219 219 221 223 226 228 231 232 234
0 357 352 342 320 285 262 250 242 240 238 236 234 232 231 232 232 230 229 229 228 228 228 228 228 226 224 223 223 223 223 222 223 223 224 224 225 226 228 229 231 232 235
1 358 356 351 340 318 282 258 249 243 241 239 237 235 233 232 232 231 229 230 229 227 226 226 226 227 226 226 226 226 226 226 226 227 227 228 229 229 230 232 233 234 237
4 360 356 352 346 335 310 277 260 251 246 243 240 238 235 232 232 232 231 231 230 228 227 227 227 228 228 228 228 228 228 228 229 230 230 231 232 232 233 235 237 238 239
6 3 358 352 344 337 323 298 277 265 257 251 247 242 236 234 232 233 233 232 232 230 229 228 229 229 229 229 228 229 230 231 231 232 233 233 234 235 236 238 239 240 242
6 4 1 356 348 340 332 315 294 278 268 260 253 247 241 237 236 234 235 234 233 231 231 230 229 229 230 231 230 230 231 232 232 233 234 235 237 238 238 239 240 242 244
5 3 360 357 353 346 339 328 311 292 278 269 260 252 247 244 240 238 238 236 234 233 232 231 231 230 231 232 231 232 233 234 235 235 235 236 238 239 240 241 242 244 245
4 4 2 358 354 349 343 335 323 306 291 280 269 258 253 249 245 241 240 237 236 235 234 234 233 232 233 234 234 233 233 233 235 236 236 237 238 240 241 242 242 244 246
1 1 1 359 356 351 346 340 331 320 306 292 278 266 258 255 251 246 242 240 237 235 233 234 234 234 233 234 235 234 233 235 235 237 238 238 239 240 242 242 243 245 246
358 358 358 357 355 352 349 345 338 330 320 307 288 273 265 261 256 251 246 243 238 235 233 233 234 236 236 235 235 236 236 236 238 238 239 240 241 242 243 244 245 245 247
356 356 356 355 354 351 348 346 342 336 329 320 304 285 274 268 263 255 249 244 240 236 234 234 235 236 237 237 236 236 237 238 239 240 241 242 243 244 245 245 246 246 247
354 354 354 353 351 349 348 347 345 341 336 330 319 301 287 277 270 262 254 248 243 239 237 236 236 237 239 239 239 239 239 239 241 242 242 242 243 244 245 246 247 247 248
350 351 352 352 350 348 347 347 348 345 341 336 329 316 303 290 281 272 262 254 248 244 242 240 239 240 240 240 240 240 240 240 241 243 243 242 243 244 246 248 248 248 249
348 348 349 349 349 347 346 345 346 345 343 338 333 323 312 301 290 281 267 258 253 249 248 246 244 242 241 241 241 242 242 243 242 243 244 243 244 245 245 246 247 249 249
344 345 346 347 347 347 347 346 345 344 341 335 331 326 318 309 298 286 273 264 259 256 253 252 249 246 245 243 242 243 244 244 244 245 245 244 244 247 247 248 248 248 249
343 343 343 344 344 344 345 345 345 343 341 337 332 327 320 313 307 295 284 277 270 264 259 255 252 250 250 249 248 247 247 247 247 247 246 245 245 247 247 247 247 247 248
340 340 340 341 341 341 341 341 341 340 337 336 332 326 321 316 310 302 293 287 280 273 267 261 256 253 253 254 254 252 250 248 247 247 248 248 248 249 249 248 248 248 250
335 336 335 335 336 336 336 337 336 334 333 332 330 327 323 318 311 306 300 293 288 281 273 269 264 258 257 258 257 255 252 250 249 248 248 249 249 248 248 248 249 250 251
Height
5801 5802 5802 5804 5806 5809 5812 5815 5817 5821 5824 5827 5830 5833 5837 5841 5844 5846 5849 5852 5854 5856 5858 5860 5863 5865 5867 5870 5872 5874 5876 5878 5880 5883 5885 5886 5888 5890 5892 5894 5895 5897 5898
5795 5795 5796 5797 5800 5802 5805 5808 5811 5815 5818 5822 5825 5828 5832 5836 5839 5842 5845 5848 5851 5853 5855 5858 5860 5862 5865 5868 5870 5872 5875 5877 5879 5881 5883 5885 5887 5889 5891 5893 5894 5896 5897
5789 5789 5790 5791 5793 5796 5799 5802 5805 5808 5812 5816 5820 5823 5827 5831 5835 5838 5841 5844 5847 5850 5853 5855 5857 5860 5862 5865 5868 5870 5873 5875 5877 5880 5882 5884 5886 5888 5890 5892 5894 5895 5896
5784 5784 5784 5785 5787 5790 5793 5796 5799 5802 5806 5810 5814 5818 5822 5826 5830 5833 5837 5840 5844 5847 5850 5852 5855 5857 5860 5863 5866 5868 5871 5873 5875 5878 5880 5882 5884 5887 5889 5891 5892 5894 5895
5780 5780 5780 5781 5782 5784 5787 5790 5793 5797 5801 5804 5808 5812 5816 5821 5825 5828 5832 5836 5839 5843 5846 5849 5852 5855 5857 5860 5863 5866 5868 5871 5873 5876 5878 5880 5883 5885 5887 5889 5891 5892 5894
5777 5776 5776 5776 5778 5779 5782 5785 5788 5791 5795 5799 5803 5807 5811 5815 5819 5823 5827 5831 5835 5838 5842 5845 5848 5851 5854 5857 5860 5863 5865 5868 5871 5873 5876 5878 5881 5883 5885 5887 5889 5891 5892
5775 5774 5773 5773 5774 5775 5777 5780 5783 5786 5789 5793 5797 5801 5805 5809 5814 5818 5821 5825 5829 5833 5837 5841 5844 5848 5851 5854 5857 5860 5862 5865 5868 5871 5873 5876 5878 5881 5883 5885 5887 5889 5890
5774 5772 5771 5770 5771 5772 5773 5776 5778 5781 5784 5787 5791 5795 5799 5804 5808 5812 5816 5820 5824 5828 5832 5836 5840 5843 5847 5850 5854 5857 5859 5862 5865 5868 5870 5873 5876 5878 5880 5883 5884 5886 5888
5773 5771 5769 5768 5768 5769 5770 5772 5774 5776 5779 5782 5786 5789 5793 5798 5801 5806 5810 5814 5818 5822 5826 5831 5835 5838 5842 5846 5849 5853 5856 5859 5862 5865 5867 5870 5873 5875 5877 5879 5881 5883 5885
5773 5771 5769 5768 5767 5767 5768 5769 5770 5772 5775 5777 5780 5784 5787 5791 5795 5799 5804 5808 5812 5816 5820 5824 5829 5833 5837 5841 5845 5848 5852 5855 5858 5861 5864 5866 5869 5871 5874 5876 5878 5880 5882
5773 5771 5769 5767 5766 5765 5765 5766 5767 5769 5770 5773 5775 5778 5781 5785 5789 5792 5797 5801 5805 5809 5813 5818 5822 5827 5831 5835 5839 5843 5847 5850 5853 5856 5859 5862 5865 5867 5870 5872 5874 5876 5878
5773 5771 5768 5767 5765 5764 5763 5763 5764 5765 5766 5768 5770 5772 5775 5779 5782 5785 5789 5793 5798 5802 5806 5811 5816 5820 5824 5829 5833 5836 5840 5844 5848 5851 5854 5857 5860 5863 5865 5868 5870 5872 5874
5773 5770 5768 5766 5764 5762 5761 5761 5761 5761 5762 5763 5765 5767 5769 5772 5775 5779 5782 5786 5790 5794 5799 5804 5808 5813 5817 5821 5826 5830 5834 5838 5842 5845 5849 5852 5855 5858 5860 5863 5865 5867 5869
5773 5770 5768 5765 5763 5761 5759 5758 5757 5757 5758 5758 5759 5761 5763 5766 5768 5771 5775 5778 5782 5787 5791 5796 5800 5805 5809 5813 5818 5822 5827 5831 5835 5839 5842 5846 5849 5852 5854 5857 5859 5862 5864
5774 5770 5767 5764 5761 5759 5757 5755 5754 5754 5754 5754 5754 5756 5757 5759 5761 5764 5767 5770 5774 5778 5783 5787 5792 5796 5800 5805 5810 5815 5819 5823 5827 5831 5835 5838 5842 5845 5848 5851 5853 5856 5858
5774 5770 5767 5763 5760 5758 5755 5753 5752 5750 5749 5749 5749 5750 5751 5753 5754 5756 5759 5762 5765 5770 5774 5778 5783 5787 5792 5797 5801 5806 5811 5815 5819 5823 5827 5831 5834 5837 5841 5844 5846 5849 5851
5773 5770 5766 5763 5759 5756 5754 5751 5749 5747 5746 5745 5744 5745 5745 5746 5747 5749 5751 5754 5757 5761 5765 5769 5773 5778 5783 5788 5793 5797 5802 5806 5810 5815 5818 5822 5826 5829 5832 5836 5839 5841 5844
5773 5769 5765 5762 5758 5755 5752 5749 5747 5744 5742 5740 5740 5740 5740 5740 5741 5742 5744 5746 5749 5752 5757 5761 5765 5769 5774 5779 5784 5788 5792 5797 5801 5805 5809 5813 5817 5820 5824 5827 5830 5833 5836
5772 5768 5764 5761 5757 5754 5751 5747 5744 5741 5738 5736 5735 5735 5735 5735 5736 5736 5737 5739 5742 5745 5749 5753 5757 5761 5765 5770 5774 5779 5783 5787 5792 5795 5799 5803 5807 5811 5814 5817 5820 5824 5826
5771 5767 5763 5760 5756 5752 5749 5745 5742 5738 5735 5733 5732 5731 5731 5731 5731 5732 5732 5734 5736 5738 5741 5745 5749 5753 5757 5761 5765 5770 5774 5778 5782 5786 5789 5793 5797 5800 5804 5807 5811 5814 5817
5770 5766 5762 5758 5754 5751 5747 5744 5740 5737 5733 5731 5730 5729 5728 5728 5728 5728 5728 5729 5730 5732 5735 5738 5741 5745 5748 5752 5756 5760 5764 5768 5772 5775 5779 5784 5787 5791 5794 5797 5800 5803 5806
5768 5765 5761 5757 5753 5749 5746 5742 5739 5735 5732 5730 5728 5727 5726 5726 5725 5724 5724 5725 5726 5727 5729 5731 5734 5737 5740 5743 5747 5751 5755 5758 5763 5766 5769 5773 5776 5780 5783 5786 5789 5792 5795
5766 5762 5759 5755 5752 5748 5744 5741 5737 5734 5732 5729 5727 5725 5724 5723 5722 5722 5721 5721 5722 5722 5724 5725 5727 5729 5732 5735 5739 5742 5745 5748 5752 5755 5758 5762 5765 5769 5772 5774 5777 5780 5783
5764 5760 5757 5753 5750 5746 5743 5740 5736 5733 5731 5728 5726 5724 5722 5721 5720 5719 5718 5718 5718 5718 5719 5720 5721 5722 5724 5727 5730 5733 5735 5739 5742 5744 5747 5751 5754 5757 5760 5762 5765 5768 5771
5761 5758 5755 5751 5748 5745 5741 5738 5735 5732 5729 5727 5725 5722 5721 5719 5717 5716 5716 5715 5714 5714 5714 5714 5715 5716 5717 5719 5721 5723 5726 5729 5731 5734 5736 5740 5743 5745 5748 5751 5753 5756 5759
5759 5755 5752 5749 5746 5742 5739 5736 5733 5730 5727 5725 5723 5721 5719 5717 5715 5714 5713 5712 5711 5710 5710 5710 5710 5710 5711 5712 5713 5715 5716 5719 5721 5724 5726 5729 5732 5734 5737 5740 5742 5744 5746